STARLINK-1142 (45093 NORAD) Tracking and Keplerian Element Data

This shows tracking and keplerian element data for the satellite.

Feedback or suggestion? Click here.




ElementValue
Catalog45093
NameSTARLINK-1142
Epoch Orbit953
Epoch Day87.91667824
Epoch Year2020
RAAN306.4765
Inclination53.0006
Eccentricity0.0006177
Argument of Perigee310.9057
Mean Anonmoly24.2414
Mean Motion15.62748796
Decay Rate0.00010516
L11 45093U 20006BB 20087.91667824 .00010516 00000-0 12051-3 0 9994
L22 45093 53.0006 306.4765 0006177 310.9057 24.2414 15.62748796 9533

Live tracking and technical data element details for STARLINK-1142 (NORAD 45093). STARLINK-1142 can be tracked NOW for your location showing map with azimuth and elevation plus other details from your city location.

Track the satellite on the map from your city or location and see movement details for azimuth, elevation, latitude, longitude, range, height, and movement on the map or in text.







IsCatalogInMostPopularTable: catalog: 45093, numindb: 13
Update: records affected: 1



GetName: 45093 STARLINK-1142

Hit Count: updated at: Sat, 28 Mar 2020 20:58:50 GMT